{"data":{"norad_id":56295,"epoch":"2026-09-20T10:36:46.224288Z","epoch_age_seconds":113783,"freshness":"FRESH","line1":"1 56295U 23056K   26263.44220167  .00001484  00000+0  63439-4 0  9993","line2":"2 56295  43.0019 163.8580 0001259 278.3751  81.6958 15.27588362190102","mean_motion":15.27588362,"eccentricity":0.0001259,"inclination_deg":43.0019,"raan_deg":163.858,"arg_perigee_deg":278.3751,"mean_anomaly_deg":81.6958,"bstar":6.3439e-5,"rev_number":19010,"period_min":94.266232698623,"perigee_km":482.16023714054,"apogee_km":483.88787749478,"semimajor_km":6861.1610573177,"source":"CELESTRAK","updated_at":"2026-09-21T09:00:33.392848Z"}}